Tri-Cities, TN

1:32 PM EDT on March 24, 2017 (GMT -0400)
Tri-Cities Regional Tennessee / Virginia

Weather History for KTRI - April, 2014

Change the Weather History Date:

Monday, April 21, 2014

  Actual Average Record
Temperature  
Mean Temperature 58 °F 57 °F  
Max Temperature 77 °F 70 °F 85 °F (1952)
Min Temperature 39 °F 44 °F 26 °F (1983)
Degree Days  
Heating Degree Days 7 9  
Month to date heating degree days 182 238  
Since 1 July heating degree days 4293 4188  
Cooling Degree Days 0 0  
Month to date cooling degree days 6 0  
Year to date cooling degree days 6 1  
Growing Degree Days 8 (Base 50)    
Moisture  
Dew Point 37 °F    
Average Humidity 48    
Maximum Humidity 70    
Minimum Humidity 25    
Precipitation  
Precipitation 0.00 in 0.11 in 0.89 in (1997)
Month to date precipitation 1.63 2.30  
Year to date precipitation 8.96 12.56  
Snow  
Snow 0.00 in 0.00 in - ()
Month to date snowfall T 0.9  
Since 1 July snowfall 13.0 13.1  
Snow Depth 0.00 in    
Sea Level Pressure  
Sea Level Pressure 30.04 in    
Wind  
Wind Speed 3 mph (SW)    
Max Wind Speed 15 mph    
Max Gust Speed 17 mph    
Visibility 10 miles    
Events      
T = Trace of Precipitation, MM = Missing Value Source: NWS Daily Summary

Daily Weather History Graph

Daily Weather History Graph

Search for Another Location

Airport or City:

Trip Planner

Search our weather history database for the weather conditions in past years. The results will help you decide how hot, cold, wet, or windy it might be!

Date:

Astronomy

Apr. 21, 2014 Rise Set
Actual Time 6:48 AM EDT 8:09 PM EDT
Civil Twilight 6:21 AM EDT 8:36 PM EDT
Nautical Twilight 5:49 AM EDT 9:08 PM EDT
Astronomical Twilight 5:15 AM EDT 9:42 PM EDT
Moon 1:35 AM EDT (4/21) 12:15 PM EDT (4/21)
Length of Visible Light 14h 14m
Length of Day
13h 20m
Waning Gibbous, 58% of the Moon is Illuminated
Apr 21
Waning Gibbous
Apr 22
Last Quarter
Apr 29
New
May 6
First Quarter
May 14
Full

Hourly Weather History & Observations

Time (EDT) Temp. Windchill Dew Point Humidity Pressure Visibility Wind Dir Wind Speed Gust Speed Precip Events Conditions
12:53 AM 50.0 °F - 30.0 °F 46% 30.13 in 10.0 mi North 3.5 mph - N/A   Clear
1:53 AM 45.0 °F 43.5 °F 33.1 °F 63% 30.13 in 10.0 mi North 3.5 mph - N/A   Clear
2:53 AM 48.9 °F - 30.9 °F 50% 30.10 in 10.0 mi Calm Calm - N/A   Clear
3:53 AM 42.1 °F - 32.0 °F 67% 30.11 in 10.0 mi Calm Calm - N/A   Clear
4:53 AM 42.1 °F - 32.0 °F 67% 30.11 in 10.0 mi Calm Calm - N/A   Clear
5:53 AM 41.0 °F - 30.9 °F 67% 30.12 in 10.0 mi Calm Calm - N/A   Partly Cloudy
6:53 AM 39.0 °F - 30.9 °F 73% 30.14 in 10.0 mi Calm Calm - N/A   Partly Cloudy
7:53 AM 44.1 °F - 35.1 °F 71% 30.15 in 10.0 mi Calm Calm - N/A   Partly Cloudy
8:53 AM 52.0 °F - 34.0 °F 50% 30.14 in 10.0 mi Calm Calm - N/A   Partly Cloudy
9:53 AM 57.0 °F - 32.0 °F 39% 30.14 in 10.0 mi SE 3.5 mph - N/A   Partly Cloudy
10:53 AM 63.0 °F - 33.1 °F 33% 30.12 in 10.0 mi Calm Calm - N/A   Partly Cloudy
11:53 AM 66.9 °F - 36.0 °F 32% 30.09 in 10.0 mi SSW 4.6 mph - N/A   Partly Cloudy
12:53 PM 71.1 °F - 37.0 °F 29% 30.06 in 10.0 mi SW 6.9 mph - N/A   Partly Cloudy
1:53 PM 73.9 °F - 37.9 °F 27% 30.03 in 10.0 mi WSW 4.6 mph - N/A   Mostly Cloudy
2:53 PM 75.9 °F - 37.9 °F 25% 29.99 in 10.0 mi SW 10.4 mph - N/A   Mostly Cloudy
3:53 PM 75.9 °F - 37.9 °F 25% 29.96 in 10.0 mi Variable 3.5 mph - N/A   Mostly Cloudy
4:53 PM 77.0 °F - 39.0 °F 25% 29.94 in 10.0 mi SSW 10.4 mph - N/A   Mostly Cloudy
5:53 PM 73.9 °F - 39.9 °F 29% 29.94 in 10.0 mi SSW 10.4 mph - N/A   Overcast
6:53 PM 73.0 °F - 41.0 °F 31% 29.93 in 10.0 mi SW 10.4 mph - N/A   Mostly Cloudy
7:53 PM 70.0 °F - 43.0 °F 38% 29.92 in 10.0 mi SSW 5.8 mph - N/A   Mostly Cloudy
8:53 PM 66.9 °F - 44.1 °F 44% 29.91 in 10.0 mi Calm Calm - N/A   Mostly Cloudy
9:53 PM 63.0 °F - 44.1 °F 50% 29.92 in 10.0 mi Calm Calm - N/A   Scattered Clouds
10:53 PM 57.9 °F - 44.1 °F 60% 29.91 in 10.0 mi Calm Calm - N/A   Partly Cloudy
11:53 PM 55.0 °F - 44.1 °F 67% 29.90 in 10.0 mi Calm Calm - N/A   Partly Cloudy